This is the latest recevied weather packets stored in our database for station/object KC9NPJ-13. If no packets are shown the sender has not sent any weather packets the latest 10 day(s).
| Time | Temp. | Humidity | Pressure | Rain* | Wind** | Luminosity | Snow |
|---|---|---|---|---|---|---|---|
| 1777976642 | 15° C | 91% | 1007 hPa | 0.25 mm | - | - | - |
| 1777976342 | 15° C | 91% | 1007.1 hPa | 0.25 mm | - | - | - |
| 1777976042 | 15° C | 91% | 1007.2 hPa | 0.51 mm | - | - | - |
| 1777975742 | 15° C | 91% | 1007.1 hPa | 1.27 mm | - | - | - |
| 1777975442 | 15° C | 90% | 1007.2 hPa | 1.52 mm | - | - | - |
| 1777975142 | 15° C | 89% | 1007.2 hPa | 2.03 mm | - | - | - |
| 1777974842 | 15.56° C | 89% | 1007.2 hPa | 3.3 mm | - | - | - |
| 1777974542 | 15.56° C | 88% | 1007.4 hPa | 4.57 mm | - | - | - |
| 1777974242 | 15.56° C | 88% | 1007.6 hPa | 4.57 mm | - | - | - |
| 1777973942 | 15.56° C | 87% | 1007.5 hPa | 4.57 mm | - | - | - |
| 1777973642 | 15.56° C | 87% | 1007.7 hPa | 4.57 mm | - | - | - |
| 1777973342 | 16.11° C | 86% | 1007.7 hPa | 4.57 mm | - | - | - |
| 1777973042 | 16.11° C | 85% | 1007.9 hPa | 4.32 mm | - | - | - |
| 1777972742 | 16.11° C | 85% | 1008 hPa | 4.32 mm | - | - | - |
| 1777972442 | 16.11° C | 84% | 1008.1 hPa | 4.06 mm | - | - | - |
| 1777972142 | 16.67° C | 83% | 1008.1 hPa | 3.3 mm | - | - | - |
| 1777971842 | 17.22° C | 81% | 1008.2 hPa | 3.05 mm | - | - | - |
| 1777971542 | 17.78° C | 78% | 1008.1 hPa | 2.54 mm | - | - | - |
| 1777971242 | 17.78° C | 76% | 1008.4 hPa | 1.27 mm | - | - | - |
| 1777970942 | 18.33° C | 73% | 1008.1 hPa | 0 mm | - | - | - |
| 1777970642 | 18.33° C | 70% | 1008 hPa | 0 mm | - | - | - |
| 1777970342 | 18.33° C | 69% | 1007.9 hPa | 0 mm | - | - | - |
| 1777970042 | 18.33° C | 69% | 1008.1 hPa | 0 mm | - | - | - |
| 1777969742 | 18.33° C | 68% | 1008.2 hPa | 0 mm | - | - | - |
| 1777969442 | 18.33° C | 67% | 1007.6 hPa | 0 mm | - | - | - |
* Rain latest hour (hover to see other rain measurements)
** Current wind speed in m/s (hover to see current wind gust speed)